SL-12 R/B(2), 29673

Orbit data source: Space-Track

SL-12 R/B(2), 29673 is space debris in MEO originally from a launch on Mon, 25 Dec 2006 UTC launched from the Tyuratam Missile And Space Complex (TTMTR). Debris objects in space refer to the collection of defunct objects orbiting the Earth. Examples of debris include non-operational satellites, rocket bodies, and fragments generated from explosions, collisions, or faulty payload assembly.

Loading next visibility...
SL-12 R/B(2) details
Identifier
29673, 2006-062D
Orbit
MEO
Last TLE update1 day ago
Origin
Flag of CISKhrunichev (CIS)
ManufacturerRKKE
MissionSpacecraft
Bus & MotorBLOK DM2, 11D58M
Mass2,440 kg wet, 2,440 kg dry
Launch date (UTC)
2006-12-25 (18 years ago)
Launch vehicleUnknown
Launch site
Tyuratam Missile And Space Complex (TTMTR)
Object type
Payload
Rocket body
Debris
Shape & HBRCyl, 6.3 m
Radar Cross Section23.684 m², Large (>1 m²)

Expand to show TLE details & history

TLE from 1 day ago
0 SL-12 R/B(2)
1 29673U 06062D   24360.38318275  .00000102  00000-0  00000-0 0  9996
2 29673  64.7016 211.6081 0026221 191.2912 168.8343  2.13404542140496
Epoch: 2024-12-25T09:11Z
Definitive object data (Epoch: 2024-12-25T09:11:46.989Z)
Latitude0.09573°
Longitude-20.66556°
Altitude19,171.891 km
Speed3.945 km/s
True Right ascension14h 06m 37s
True Declination0° 05' 44"
Sunlit
Object was in daylight at TLE epoch
Visualization TLE readout
Latitude64.54934°
Longitude76.45141°
Altitude19,125.76 km
Speed3.954 km/s
Apparent Right ascension21h 00m 22s
Apparent Declination50° 25' 45"
Sunlit
Object is in daylight
Visualization observer readout
Local Sidereal Time09:57:26
Azimuth9.035° NNE
Elevation1.209°
Doppler factor1
Orbital elements
Apogee altitude19,172.219 km
Perigee altitude19,038.578 km
Semi-major axis25,483.535 km
Eccentricity0.0026221
Inclination64.7016°
RAAN211.6081°
Arg. of periapsis191.2912°
True anomaly168.8923°
Mean anomaly168.8343°
Eccentric anomaly168.86332°
Mean motion0.53352 °/min
BSTARUnknown
Orbital period674.76 mins
Loading maneuver chart data...
Loading historical data...
Loading historical data...
Loading historical data...
Loading historical data...
Loading historical data...
Loading historical data...
Loading historical data...

SL-12 R/B(2) Visibility forecast

Observer location: undefined°, undefined

Span
Click to sort rows by Start time (UTC) header in descending order
Start Az.
Max El. time (UTC)
Max El. Az.
Max El.
End time (UTC)
End Az.
362 mins2024-12-26 19:09:14.264Z257.302° W2024-12-26 22:38:14.264Z42.837° NE41.807°2024-12-27 01:11:14.264Z146.538° SSE
|